Location: Brienzwiler
(46.7508°N, 8.1014°E)
Time: 08:11:22
(UTC+00:00)

MetOp-B - Pass Details

Date: 05 July 2020
Orbit: 819 x 821 km, 98.7° (Epoch: 05 August)

Event Time Altitude Azimuth Distance (km) Brightness Sun altitude
Exits shadow 20:27:48 - 171° (S) 2,788 6.4 -9.0°
Reaches altitude 10° 20:28:46 10° 173° (S) 2,411 6.1 -9.2°
Maximum altitude 20:34:05 71° 257° (WSW) 869 4.4 -9.8°
Drops below altitude 10° 20:39:28 10° 342° (NNW) 2,429 7.8 -10.4°
Sets 20:41:50 0° 344° (NNW) 3,366 8.7 -10.6°
